Hourly Data Report for October 26, 2014

All times are specified in Local Standard Time (LST). Add 1 hour to adjust for Daylight Saving Time where and when it is observed.

KUGAARUK CLIMATE
NUNAVUT

68°32'15.060" N
89°47'47.020" W
15.80 m
2303094
71407
NBB

Download Data

Hourly Data (October 2014)
Hourly Data Report for October 26, 2014
Temp Definition
°C
Dew Point Temp Definition
°C
Rel Hum Definition
%
Wind Dir Definition
10's deg

Wind Spd Definition
km/h
Visibility Definition
km
Stn Press Definition
kPa
Hmdx Definition


Wind Chill Definition


Weather Definition


TIME
00:00 -11.1 -13.2 84 2 9   101.47   -16 LegendNANA
01:00 -10.9 -12.8 86 6 10   101.45   -16 LegendNANA
02:00 -10.7 -12.8 85 8 14   101.43   -17 LegendNANA
03:00 -9.8 -11.9 85 15 30   101.37   -19 LegendNANA
04:00 -9.4 -11.6 84 15 34   101.37   -19 LegendNANA
05:00 -9.5 -11.6 84 15 28   101.37   -19 LegendNANA
06:00 -9.4 -11.5 85 15 31   101.32   -19 LegendNANA
07:00 -9.4 -11.4 85 15 27   101.33   -18 LegendNANA
08:00 -9.0 -11.0 85 15 27   101.31   -18 LegendNANA
09:00 -8.9 -11.1 84 16 30   101.30   -18 LegendNANA
10:00 -9.0 -11.4 83 16 28   101.30   -18 LegendNANA
11:00 -9.3 -11.8 82 6 5   101.35   -12 LegendNANA
12:00 -10.3 -12.6 83 7 9   101.34   -15 LegendNANA
13:00 -9.7 -11.9 84 7 11   101.34   -15 LegendNANA
14:00 -8.7 -10.9 84 7 10   101.35   -14 LegendNANA
15:00 -8.8 -10.8 85 16 8   101.35   -13 LegendNANA
16:00 -8.3 -10.7 83 16 19   101.36   -16 LegendNANA
17:00 -8.1 -10.3 84 15 11   101.38   -13 LegendNANA
18:00 -9.0 -10.8 87 6 10   101.37   -14 LegendNANA
19:00 -9.4 -10.7 90 5 10   101.35   -15 LegendNANA
20:00 -9.5 -10.8 90 5 9   101.35   -14 LegendNANA
21:00 -8.5 -10.1 89 7 5   101.35   -11 LegendNANA
22:00 -8.5 -10.1 89 4 5   101.33   -11 LegendNANA
23:00 -8.9 -10.1 91 4 10   101.34   -14 LegendNANA

Notes on Data Quality.

Legend

  • E = Estimated
  • M = Missing
  • NA = Not Available
  • ‡ = Partner data that is not subject to review by the National Climate Archives
Date modified: